DELTA 1 DEB, 7167

Orbit data source: Space-Track

DELTA 1 DEB, 7167 is space debris in SSO originally from a launch on Tue, 06 Nov 1973 UTC launched from the Air Force Western Test Range (AFWTR). Debris objects in space refer to the collection of defunct objects orbiting the Earth. Examples of debris include non-operational satellites, rocket bodies, and fragments generated from explosions, collisions, or faulty payload assembly.

Loading next visibility...
Identifier
7167, 1973-086EF
Orbit
SSO
Country
Flag of USUS
Related business
Manufacturer
Unknown
Mission
Spacecraft
Bus & Motor
Unknown
Mass
Unknown
Launch date (UTC)
1973-11-06 (53 years ago)
Launch vehicle
Unknown
Launch site
Air Force Western Test Range (AFWTR)
Object type
Payload
Rocket body
Debris
Shape & HBR
Unknown shape, 0.1 m
Radar Cross Section
Medium (>0.1 m² and <1 m²)

Expand to show TLE details & history
Last TLE update: 10 hours ago

TLE from 10 hours ago
0 DELTA 1 DEB
1 07167U 73086EF  26255.29110163  .00000224  00000-0  16516-2 0  9997
2 07167 101.9917  56.2011 0041002 347.5151 132.5115 12.55462361404820
Epoch: 2026-09-12T06:59Z
TLE epoch observation values (Epoch: 2026-09-12T06:59:11.180Z)
Latitude
57.65154°
Longitude
159.59696°
Altitude
1,472.963 km
Speed
7.122 km/s
True Right ascension
17h 02m 46s
True Declination
57° 30' 36"
Sunlit
Object was in daylight at epoch
Visualization orbit readout
Latitude
Unknown
Longitude
Unknown
Altitude
Unknown
Speed
Unknown
Apparent Right ascension
Unknown
Apparent Declination
Unknown
Sunlit
N/A
Visualization observer readout
Local Sidereal Time
09:16:43
Azimuth
Unknown
Elevation
Unknown
Doppler factor
Unknown
Orbital elements
Apogee altitude
1,471.337 km
Perigee altitude
1,407.231 km
Semi-major axis
7,817.421 km
Eccentricity
0.0041
Inclination
101.9917°
RAAN
56.2011°
Arg. of periapsis
347.5151°
True anomaly
132.85665°
Mean anomaly
132.5115°
Eccentric anomaly
132.68419°
Mean motion
3.14013 °/min
Orbital period
114.64 mins
BSTAR
0.0016516
Loading maneuver chart data...
Computing Atmospheric mass density...
Loading historical data...
Loading historical data...
Loading historical data...
Loading historical data...
Loading historical data...
Loading historical data...
Loading historical data...

Documentation

Showing up to 5 results
|